Time,TemperatureF,DewpointF,PressureIn,WindDirection,WindDirectionDegrees,WindSpeedMPH,WindSpeedGustMPH,Humidity,HourlyPrecipIn,Conditions,Clouds,dailyrainin,SoftwareType,DateUTC
2013-01-11 00:05:00,34.7,24.5,30.49,NNW,335,1.0,1.0,66,0.00,,,0.00,Wunderground v.1.15,2013-01-11 05:05:00,
2013-01-11 00:10:00,34.5,24.3,30.49,WNW,283,1.0,2.0,66,0.00,,,0.00,Wunderground v.1.15,2013-01-11 05:10:00,
2013-01-11 00:15:00,34.4,24.6,30.49,NW,304,1.0,2.0,67,0.00,,,0.00,Wunderground v.1.15,2013-01-11 05:15:00,
2013-01-11 00:20:00,34.3,24.5,30.49,NW,304,1.0,1.0,67,0.00,,,0.00,Wunderground v.1.15,2013-01-11 05:20:00,
2013-01-11 00:30:00,34.1,24.6,30.49,West,277,1.0,1.0,68,0.00,,,0.00,Wunderground v.1.15,2013-01-11 05:30:00,
2013-01-11 00:35:00,34.0,24.5,30.49,West,277,2.0,2.0,68,0.00,,,0.00,Wunderground v.1.15,2013-01-11 05:35:00,
2013-01-11 00:45:00,33.8,24.4,30.49,West,272,1.0,2.0,68,0.00,,,0.00,Wunderground v.1.15,2013-01-11 05:45:00,
2013-01-11 00:50:00,33.7,24.3,30.49,West,273,1.0,1.0,68,0.00,,,0.00,Wunderground v.1.15,2013-01-11 05:50:00,
2013-01-11 01:00:00,33.4,24.3,30.48,West,273,0.0,2.0,69,0.00,,,0.00,Wunderground v.1.15,2013-01-11 06:00:00,
2013-01-11 01:05:00,33.2,24.5,30.48,West,273,0.0,2.0,70,0.00,,,0.00,Wunderground v.1.15,2013-01-11 06:05:00,
2013-01-11 01:15:00,32.9,24.2,30.48,West,273,1.0,1.0,70,0.00,,,0.00,Wunderground v.1.15,2013-01-11 06:15:00,
2013-01-11 01:20:00,32.7,24.3,30.47,West,273,0.0,0.0,71,0.00,,,0.00,Wunderground v.1.15,2013-01-11 06:20:00,
2013-01-11 01:30:00,32.4,24.4,30.48,West,273,1.0,1.0,72,0.00,,,0.00,Wunderground v.1.15,2013-01-11 06:30:00,
2013-01-11 01:35:00,32.3,24.3,30.48,West,273,1.0,1.0,72,0.00,,,0.00,Wunderground v.1.15,2013-01-11 06:35:00,
2013-01-11 01:45:00,31.9,24.2,30.48,West,273,1.0,1.0,73,0.00,,,0.00,Wunderground v.1.15,2013-01-11 06:45:00,
2013-01-11 01:55:00,31.5,23.8,30.48,West,273,0.0,0.0,73,0.00,,,0.00,Wunderground v.1.15,2013-01-11 06:55:00,
2013-01-11 02:05:00,31.2,24.2,30.48,West,273,0.0,0.0,75,0.00,,,0.00,Wunderground v.1.15,2013-01-11 07:05:00,
2013-01-11 02:15:00,31.2,24.2,30.47,NNW,343,0.0,1.0,75,0.00,,,0.00,Wunderground v.1.15,2013-01-11 07:15:00,
2013-01-11 02:25:00,31.3,24.3,30.48,NNW,343,0.0,0.0,75,0.00,,,0.00,Wunderground v.1.15,2013-01-11 07:25:00,
2013-01-11 02:30:00,31.1,24.1,30.47,NNW,343,0.0,0.0,75,0.00,,,0.00,Wunderground v.1.15,2013-01-11 07:30:00,
2013-01-11 02:35:00,31.0,24.3,30.48,NNW,343,0.0,0.0,76,0.00,,,0.00,Wunderground v.1.15,2013-01-11 07:35:00,
2013-01-11 02:45:00,30.6,23.9,30.47,NNW,343,0.0,0.0,76,0.00,,,0.00,Wunderground v.1.15,2013-01-11 07:45:00,
2013-01-11 02:50:00,30.1,23.8,30.47,NNW,343,0.0,0.0,77,0.00,,,0.00,Wunderground v.1.15,2013-01-11 07:50:00,
2013-01-11 03:00:00,29.9,23.9,30.47,NNW,336,0.0,1.0,78,0.00,,,0.00,Wunderground v.1.15,2013-01-11 08:00:00,
2013-01-11 03:05:00,29.9,24.2,30.47,NW,321,1.0,1.0,79,0.00,,,0.00,Wunderground v.1.15,2013-01-11 08:05:00,
2013-01-11 03:20:00,29.9,24.2,30.47,NW,321,1.0,1.0,79,0.00,,,0.00,Wunderground v.1.15,2013-01-11 08:20:00,
2013-01-11 03:30:00,30.0,24.0,30.46,NW,321,0.0,0.0,78,0.00,,,0.00,Wunderground v.1.15,2013-01-11 08:30:00,
2013-01-11 03:35:00,29.8,23.8,30.46,NW,321,0.0,0.0,78,0.00,,,0.00,Wunderground v.1.15,2013-01-11 08:35:00,
2013-01-11 03:45:00,29.7,24.0,30.46,NW,321,1.0,1.0,79,0.00,,,0.00,Wunderground v.1.15,2013-01-11 08:45:00,
2013-01-11 03:50:00,29.6,23.9,30.45,NW,321,1.0,1.0,79,0.00,,,0.00,Wunderground v.1.15,2013-01-11 08:50:00,
2013-01-11 03:55:00,29.5,24.1,30.45,NW,321,0.0,1.0,80,0.00,,,0.00,Wunderground v.1.15,2013-01-11 08:55:00,
2013-01-11 04:00:00,29.3,23.9,30.45,NW,321,0.0,0.0,80,0.00,,,0.00,Wunderground v.1.15,2013-01-11 09:00:00,
2013-01-11 04:10:00,29.2,23.8,30.45,NW,321,1.0,1.0,80,0.00,,,0.00,Wunderground v.1.15,2013-01-11 09:10:00,
2013-01-11 04:20:00,29.4,24.0,30.45,NW,321,1.0,1.0,80,0.00,,,0.00,Wunderground v.1.15,2013-01-11 09:20:00,
2013-01-11 04:25:00,29.3,23.9,30.44,NW,321,0.0,1.0,80,0.00,,,0.00,Wunderground v.1.15,2013-01-11 09:25:00,
2013-01-11 04:35:00,29.1,24.0,30.45,NW,321,1.0,1.0,81,0.00,,,0.00,Wunderground v.1.15,2013-01-11 09:35:00,
2013-01-11 04:45:00,28.9,23.8,30.44,NW,321,0.0,0.0,81,0.00,,,0.00,Wunderground v.1.15,2013-01-11 09:45:00,
2013-01-11 04:55:00,28.9,24.1,30.45,NW,321,0.0,1.0,82,0.00,,,0.00,Wunderground v.1.15,2013-01-11 09:55:00,
2013-01-11 05:05:00,28.7,23.9,30.45,NW,321,0.0,1.0,82,0.00,,,0.00,Wunderground v.1.15,2013-01-11 10:05:00,
2013-01-11 05:10:00,28.7,23.9,30.45,NW,321,0.0,0.0,82,0.00,,,0.00,Wunderground v.1.15,2013-01-11 10:10:00,
2013-01-11 05:15:00,28.8,24.0,30.45,NW,321,0.0,0.0,82,0.00,,,0.00,Wunderground v.1.15,2013-01-11 10:15:00,
2013-01-11 05:25:00,28.8,24.0,30.45,NW,321,0.0,0.0,82,0.00,,,0.00,Wunderground v.1.15,2013-01-11 10:25:00,
2013-01-11 05:30:00,28.8,24.0,30.46,NW,321,0.0,0.0,82,0.00,,,0.00,Wunderground v.1.15,2013-01-11 10:30:00,
2013-01-11 05:40:00,28.6,23.8,30.46,NW,321,0.0,0.0,82,0.00,,,0.00,Wunderground v.1.15,2013-01-11 10:40:00,
2013-01-11 05:50:00,28.4,23.9,30.46,NW,321,0.0,0.0,83,0.00,,,0.00,Wunderground v.1.15,2013-01-11 10:50:00,
2013-01-11 05:55:00,28.4,23.9,30.46,NW,321,0.0,0.0,83,0.00,,,0.00,Wunderground v.1.15,2013-01-11 10:55:00,
2013-01-11 06:05:00,28.4,24.2,30.47,NW,321,0.0,1.0,84,0.00,,,0.00,Wunderground v.1.15,2013-01-11 11:05:00,
2013-01-11 06:15:00,28.5,24.3,30.46,NW,321,0.0,0.0,84,0.00,,,0.00,Wunderground v.1.15,2013-01-11 11:15:00,
2013-01-11 06:25:00,28.7,24.5,30.47,NW,321,0.0,0.0,84,0.00,,,0.00,Wunderground v.1.15,2013-01-11 11:25:00,
2013-01-11 06:35:00,28.8,24.6,30.47,NW,321,0.0,0.0,84,0.00,,,0.00,Wunderground v.1.15,2013-01-11 11:35:00,
2013-01-11 06:40:00,28.7,24.5,30.47,NW,321,0.0,0.0,84,0.00,,,0.00,Wunderground v.1.15,2013-01-11 11:40:00,
2013-01-11 06:50:00,28.9,24.7,30.47,NW,321,0.0,0.0,84,0.00,,,0.00,Wunderground v.1.15,2013-01-11 11:50:00,
2013-01-11 07:00:00,28.9,25.0,30.47,NW,321,0.0,0.0,85,0.00,,,0.00,Wunderground v.1.15,2013-01-11 12:00:00,
2013-01-11 07:05:00,29.0,24.8,30.48,NW,321,0.0,0.0,84,0.00,,,0.00,Wunderground v.1.15,2013-01-11 12:05:00,
2013-01-11 07:15:00,29.1,24.9,30.48,NW,321,0.0,0.0,84,0.00,,,0.00,Wunderground v.1.15,2013-01-11 12:15:00,
2013-01-11 07:25:00,29.2,25.0,30.47,NW,321,0.0,0.0,84,0.00,,,0.00,Wunderground v.1.15,2013-01-11 12:25:00,
2013-01-11 07:30:00,29.3,24.8,30.47,NW,321,0.0,0.0,83,0.00,,,0.00,Wunderground v.1.15,2013-01-11 12:30:00,
2013-01-11 07:35:00,29.3,24.8,30.47,NW,321,0.0,0.0,83,0.00,,,0.00,Wunderground v.1.15,2013-01-11 12:35:00,
2013-01-11 07:45:00,29.4,24.9,30.48,NW,321,0.0,0.0,83,0.00,,,0.00,Wunderground v.1.15,2013-01-11 12:45:00,
2013-01-11 07:50:00,29.6,25.1,30.48,NW,321,0.0,0.0,83,0.00,,,0.00,Wunderground v.1.15,2013-01-11 12:50:00,
2013-01-11 08:00:00,29.9,25.4,30.48,NW,321,0.0,0.0,83,0.00,,,0.00,Wunderground v.1.15,2013-01-11 13:00:00,
2013-01-11 08:05:00,30.2,25.4,30.48,NW,321,0.0,0.0,82,0.00,,,0.00,Wunderground v.1.15,2013-01-11 13:05:00,
2013-01-11 08:15:00,30.5,25.7,30.48,NW,321,0.0,1.0,82,0.00,,,0.00,Wunderground v.1.15,2013-01-11 13:15:00,
2013-01-11 08:25:00,30.8,25.7,30.48,NW,321,0.0,0.0,81,0.00,,,0.00,Wunderground v.1.15,2013-01-11 13:25:00,
2013-01-11 08:30:00,31.0,25.9,30.48,NW,321,0.0,0.0,81,0.00,,,0.00,Wunderground v.1.15,2013-01-11 13:30:00,
2013-01-11 08:35:00,31.2,25.7,30.48,NW,321,0.0,1.0,80,0.00,,,0.00,Wunderground v.1.15,2013-01-11 13:35:00,
2013-01-11 08:45:00,31.7,25.6,30.48,NW,321,0.0,0.0,78,0.00,,,0.00,Wunderground v.1.15,2013-01-11 13:45:00,
2013-01-11 08:55:00,32.0,25.6,30.47,East,93,1.0,1.0,77,0.00,,,0.00,Wunderground v.1.15,2013-01-11 13:55:00,
2013-01-11 09:05:00,32.3,25.6,30.46,East,93,0.0,1.0,76,0.00,,,0.00,Wunderground v.1.15,2013-01-11 14:05:00,
2013-01-11 09:10:00,32.5,25.8,30.46,East,96,1.0,1.0,76,0.00,,,0.00,Wunderground v.1.15,2013-01-11 14:10:00,
2013-01-11 09:20:00,32.9,25.8,30.47,East,96,0.0,0.0,75,0.00,,,0.00,Wunderground v.1.15,2013-01-11 14:20:00,
2013-01-11 09:25:00,33.3,26.2,30.46,East,96,0.0,0.0,75,0.00,,,0.00,Wunderground v.1.15,2013-01-11 14:25:00,
2013-01-11 09:30:00,33.6,26.5,30.47,East,96,0.0,0.0,75,0.00,,,0.00,Wunderground v.1.15,2013-01-11 14:30:00,
2013-01-11 09:40:00,34.3,26.5,30.47,East,94,1.0,1.0,73,0.00,,,0.00,Wunderground v.1.15,2013-01-11 14:40:00,
2013-01-11 09:45:00,34.6,26.5,30.46,East,94,0.0,2.0,72,0.00,,,0.00,Wunderground v.1.15,2013-01-11 14:45:00,
2013-01-11 09:55:00,35.2,26.4,30.46,NNE,29,1.0,2.0,70,0.00,,,0.00,Wunderground v.1.15,2013-01-11 14:55:00,
2013-01-11 10:05:00,35.9,26.7,30.46,NNE,29,0.0,1.0,69,0.00,,,0.00,Wunderground v.1.15,2013-01-11 15:05:00,
2013-01-11 10:10:00,35.8,26.3,30.46,NNE,29,0.0,0.0,68,0.00,,,0.00,Wunderground v.1.15,2013-01-11 15:10:00,
2013-01-11 10:20:00,36.7,26.8,30.46,NNE,28,0.0,1.0,67,0.00,,,0.00,Wunderground v.1.15,2013-01-11 15:20:00,
2013-01-11 10:25:00,36.6,26.7,30.45,NNE,27,1.0,1.0,67,0.00,,,0.00,Wunderground v.1.15,2013-01-11 15:25:00,
2013-01-11 10:35:00,36.8,26.5,30.45,East,88,0.0,1.0,66,0.00,,,0.00,Wunderground v.1.15,2013-01-11 15:35:00,
2013-01-11 10:45:00,36.9,26.6,30.44,East,88,1.0,2.0,66,0.00,,,0.00,Wunderground v.1.15,2013-01-11 15:45:00,
2013-01-11 10:50:00,37.0,27.1,30.43,East,88,1.0,1.0,67,0.00,,,0.00,Wunderground v.1.15,2013-01-11 15:50:00,
2013-01-11 11:00:00,37.5,27.2,30.42,East,83,1.0,1.0,66,0.00,,,0.00,Wunderground v.1.15,2013-01-11 16:00:00,
2013-01-11 11:05:00,37.7,27.4,30.42,East,83,1.0,1.0,66,0.00,,,0.00,Wunderground v.1.15,2013-01-11 16:05:00,
2013-01-11 11:10:00,37.8,27.5,30.41,East,83,1.0,1.0,66,0.00,,,0.00,Wunderground v.1.15,2013-01-11 16:10:00,
2013-01-11 11:20:00,38.1,27.4,30.41,SE,139,1.0,1.0,65,0.00,,,0.00,Wunderground v.1.15,2013-01-11 16:20:00,
2013-01-11 11:25:00,38.1,27.7,30.40,SE,139,1.0,1.0,66,0.00,,,0.00,Wunderground v.1.15,2013-01-11 16:25:00,
2013-01-11 11:35:00,38.8,28.4,30.40,SSW,197,0.0,1.0,66,0.00,,,0.00,Wunderground v.1.15,2013-01-11 16:35:00,
2013-01-11 11:45:00,38.6,27.8,30.39,SSE,151,0.0,2.0,65,0.00,,,0.00,Wunderground v.1.15,2013-01-11 16:45:00,
2013-01-11 11:55:00,39.1,28.3,30.39,SSE,167,1.0,2.0,65,0.00,,,0.00,Wunderground v.1.15,2013-01-11 16:55:00,
2013-01-11 12:05:00,39.3,28.5,30.38,SSE,167,0.0,1.0,65,0.00,,,0.00,Wunderground v.1.15,2013-01-11 17:05:00,
2013-01-11 12:10:00,39.4,28.6,30.38,SSE,167,0.0,0.0,65,0.00,,,0.00,Wunderground v.1.15,2013-01-11 17:10:00,
2013-01-11 12:20:00,39.8,29.0,30.37,SSE,167,0.0,0.0,65,0.00,,,0.00,Wunderground v.1.15,2013-01-11 17:20:00,
2013-01-11 12:30:00,40.2,29.4,30.38,SSE,167,0.0,0.0,65,0.00,,,0.00,Wunderground v.1.15,2013-01-11 17:30:00,
2013-01-11 12:40:00,40.0,28.8,30.38,West,272,1.0,2.0,64,0.00,,,0.00,Wunderground v.1.15,2013-01-11 17:40:00,
2013-01-11 12:50:00,39.8,29.0,30.37,WNW,286,2.0,2.0,65,0.00,,,0.00,Wunderground v.1.15,2013-01-11 17:50:00,
2013-01-11 13:00:00,39.9,29.1,30.36,WNW,286,0.0,0.0,65,0.00,,,0.00,Wunderground v.1.15,2013-01-11 18:00:00,
2013-01-11 13:10:00,40.2,29.0,30.36,WNW,286,0.0,0.0,64,0.00,,,0.00,Wunderground v.1.15,2013-01-11 18:10:00,
2013-01-11 13:20:00,40.4,29.6,30.36,SW,223,1.0,1.0,65,0.00,,,0.00,Wunderground v.1.15,2013-01-11 18:20:00,
2013-01-11 13:25:00,40.3,29.5,30.36,West,264,1.0,1.0,65,0.00,,,0.00,Wunderground v.1.15,2013-01-11 18:25:00,
2013-01-11 13:35:00,40.1,30.0,30.35,WSW,249,1.0,1.0,67,0.00,,,0.00,Wunderground v.1.15,2013-01-11 18:35:00,
2013-01-11 13:40:00,40.2,30.1,30.35,WSW,248,1.0,1.0,67,0.00,,,0.00,Wunderground v.1.15,2013-01-11 18:40:00,
2013-01-11 13:45:00,40.3,30.2,30.35,WSW,248,0.0,1.0,67,0.00,,,0.00,Wunderground v.1.15,2013-01-11 18:45:00,
2013-01-11 13:50:00,40.2,30.5,30.35,WSW,248,0.0,0.0,68,0.00,,,0.00,Wunderground v.1.15,2013-01-11 18:50:00,
2013-01-11 14:00:00,40.2,30.5,30.35,WSW,245,0.0,1.0,68,0.00,,,0.00,Wunderground v.1.15,2013-01-11 19:00:00,
2013-01-11 14:05:00,40.0,30.3,30.35,WSW,245,1.0,1.0,68,0.00,,,0.00,Wunderground v.1.15,2013-01-11 19:05:00,
2013-01-11 14:10:00,40.1,30.7,30.35,WSW,245,0.0,0.0,69,0.00,,,0.00,Wunderground v.1.15,2013-01-11 19:10:00,
2013-01-11 14:20:00,40.0,30.6,30.35,WSW,245,0.0,1.0,69,0.00,,,0.00,Wunderground v.1.15,2013-01-11 19:20:00,
2013-01-11 14:25:00,40.0,30.6,30.35,WSW,245,0.0,1.0,69,0.00,,,0.00,Wunderground v.1.15,2013-01-11 19:25:00,
2013-01-11 14:35:00,39.9,30.5,30.33,SE,146,1.0,1.0,69,0.00,,,0.00,Wunderground v.1.15,2013-01-11 19:35:00,
2013-01-11 14:40:00,39.9,30.9,30.35,SE,138,1.0,1.0,70,0.00,,,0.00,Wunderground v.1.15,2013-01-11 19:40:00,
2013-01-11 14:50:00,39.9,30.9,30.34,South,171,0.0,0.0,70,0.00,,,0.00,Wunderground v.1.15,2013-01-11 19:50:00,
2013-01-11 15:00:00,40.0,30.6,30.34,South,170,0.0,0.0,69,0.00,,,0.00,Wunderground v.1.15,2013-01-11 20:00:00,
2013-01-11 15:10:00,39.9,30.5,30.33,South,170,0.0,1.0,69,0.00,,,0.00,Wunderground v.1.15,2013-01-11 20:10:00,
2013-01-11 15:20:00,39.8,30.8,30.31,SE,128,1.0,1.0,70,0.00,,,0.00,Wunderground v.1.15,2013-01-11 20:20:00,
2013-01-11 15:25:00,39.7,30.7,30.31,SE,128,1.0,1.0,70,0.00,,,0.00,Wunderground v.1.15,2013-01-11 20:25:00,
2013-01-11 15:35:00,39.6,30.6,30.32,SE,128,0.0,1.0,70,0.00,,,0.00,Wunderground v.1.15,2013-01-11 20:35:00,
2013-01-11 15:45:00,39.6,30.6,30.31,SE,128,0.0,0.0,70,0.00,,,0.00,Wunderground v.1.15,2013-01-11 20:45:00,
2013-01-11 15:50:00,39.7,31.1,30.31,SE,128,0.0,1.0,71,0.00,,,0.00,Wunderground v.1.15,2013-01-11 20:50:00,
2013-01-11 16:00:00,39.7,31.1,30.30,SE,128,0.0,0.0,71,0.00,,,0.00,Wunderground v.1.15,2013-01-11 21:00:00,
2013-01-11 16:10:00,39.7,31.1,30.30,SE,128,0.0,1.0,71,0.00,,,0.00,Wunderground v.1.15,2013-01-11 21:10:00,
2013-01-11 16:15:00,39.6,31.0,30.30,SSW,195,0.0,2.0,71,0.00,,,0.00,Wunderground v.1.15,2013-01-11 21:15:00,
2013-01-11 16:25:00,39.6,31.0,30.30,SSW,208,1.0,1.0,71,0.00,,,0.00,Wunderground v.1.15,2013-01-11 21:25:00,
2013-01-11 16:30:00,39.6,31.0,30.30,SSW,208,1.0,2.0,71,0.00,,,0.00,Wunderground v.1.15,2013-01-11 21:30:00,
2013-01-11 16:40:00,39.6,31.0,30.30,SSE,153,0.0,1.0,71,0.00,,,0.00,Wunderground v.1.15,2013-01-11 21:40:00,
2013-01-11 16:50:00,39.6,31.3,30.29,SSE,153,0.0,0.0,72,0.00,,,0.00,Wunderground v.1.15,2013-01-11 21:50:00,
2013-01-11 17:00:00,39.5,31.2,30.29,SE,136,0.0,0.0,72,0.00,,,0.00,Wunderground v.1.15,2013-01-11 22:00:00,
2013-01-11 17:10:00,39.5,31.2,30.28,SE,134,1.0,1.0,72,0.00,,,0.00,Wunderground v.1.15,2013-01-11 22:10:00,
2013-01-11 17:20:00,39.5,31.6,30.28,SE,134,0.0,0.0,73,0.00,,,0.00,Wunderground v.1.15,2013-01-11 22:20:00,
2013-01-11 17:25:00,39.5,31.6,30.28,SE,134,0.0,0.0,73,0.00,,,0.00,Wunderground v.1.15,2013-01-11 22:25:00,
2013-01-11 17:35:00,39.4,31.8,30.28,SSE,153,0.0,1.0,74,0.00,,,0.00,Wunderground v.1.15,2013-01-11 22:35:00,
2013-01-11 17:40:00,39.4,32.1,30.28,South,171,0.0,0.0,75,0.00,,,0.00,Wunderground v.1.15,2013-01-11 22:40:00,
2013-01-11 17:50:00,39.3,32.4,30.28,South,171,0.0,0.0,76,0.00,,,0.00,Wunderground v.1.15,2013-01-11 22:50:00,
2013-01-11 18:00:00,39.1,32.8,30.27,South,171,0.0,0.0,78,0.00,,,0.00,Wunderground v.1.15,2013-01-11 23:00:00,
2013-01-11 18:10:00,38.9,32.9,30.27,South,171,0.0,0.0,79,0.00,,,0.00,Wunderground v.1.15,2013-01-11 23:10:00,
2013-01-11 18:20:00,38.8,33.2,30.27,South,171,0.0,0.0,80,0.00,,,0.00,Wunderground v.1.15,2013-01-11 23:20:00,
2013-01-11 18:25:00,38.8,33.2,30.27,South,171,0.0,0.0,80,0.00,,,0.00,Wunderground v.1.15,2013-01-11 23:25:00,
2013-01-11 18:35:00,38.8,33.5,30.27,SE,130,0.0,2.0,81,0.00,,,0.00,Wunderground v.1.15,2013-01-11 23:35:00,
2013-01-11 18:40:00,38.7,33.4,30.27,SE,130,0.0,0.0,81,0.00,,,0.00,Wunderground v.1.15,2013-01-11 23:40:00,
2013-01-11 18:45:00,38.8,33.5,30.26,SE,130,1.0,1.0,81,0.00,,,0.00,Wunderground v.1.15,2013-01-11 23:45:00,
2013-01-11 18:55:00,38.6,33.3,30.25,SE,127,1.0,1.0,81,0.00,,,0.00,Wunderground v.1.15,2013-01-11 23:55:00,
2013-01-11 19:05:00,38.5,33.8,30.25,SE,129,1.0,1.0,83,0.00,,,0.00,Wunderground v.1.15,2013-01-12 00:05:00,
2013-01-11 19:10:00,38.5,33.8,30.25,SE,129,0.0,0.0,83,0.00,,,0.00,Wunderground v.1.15,2013-01-12 00:10:00,
2013-01-11 19:20:00,38.4,34.0,30.25,SE,142,1.0,1.0,84,0.00,,,0.01,Wunderground v.1.15,2013-01-12 00:20:00,
2013-01-11 19:25:00,38.3,33.9,30.25,SE,142,0.0,1.0,84,0.00,,,0.01,Wunderground v.1.15,2013-01-12 00:25:00,
2013-01-11 19:35:00,38.3,34.2,30.24,SE,142,0.0,0.0,85,0.00,,,0.01,Wunderground v.1.15,2013-01-12 00:35:00,
2013-01-11 19:40:00,38.3,34.2,30.25,SE,142,0.0,0.0,85,0.00,,,0.01,Wunderground v.1.15,2013-01-12 00:40:00,
2013-01-11 19:50:00,38.3,34.5,30.24,SE,132,0.0,0.0,86,0.00,,,0.01,Wunderground v.1.15,2013-01-12 00:50:00,
2013-01-11 19:55:00,38.4,34.3,30.24,SE,132,1.0,2.0,85,0.00,,,0.01,Wunderground v.1.15,2013-01-12 00:55:00,
2013-01-11 20:05:00,38.3,34.5,30.24,SE,146,1.0,1.0,86,0.00,,,0.01,Wunderground v.1.15,2013-01-12 01:05:00,
2013-01-11 20:10:00,38.2,34.4,30.24,SE,146,1.0,2.0,86,0.00,,,0.01,Wunderground v.1.15,2013-01-12 01:10:00,
2013-01-11 20:20:00,38.1,34.3,30.24,SE,132,1.0,1.0,86,0.00,,,0.02,Wunderground v.1.15,2013-01-12 01:20:00,
2013-01-11 20:25:00,38.0,34.5,30.24,SW,234,1.0,1.0,87,0.06,,,0.03,Wunderground v.1.15,2013-01-12 01:25:00,
2013-01-11 20:35:00,37.9,34.7,30.24,SSE,161,0.0,1.0,88,0.10,,,0.04,Wunderground v.1.15,2013-01-12 01:35:00,
2013-01-11 20:40:00,37.8,34.6,30.23,SSE,155,1.0,1.0,88,0.10,,,0.05,Wunderground v.1.15,2013-01-12 01:40:00,
2013-01-11 20:50:00,37.6,34.7,30.23,SSE,152,0.0,0.0,89,0.06,,,0.06,Wunderground v.1.15,2013-01-12 01:50:00,
2013-01-11 20:55:00,37.5,34.8,30.22,SSE,152,0.0,1.0,90,0.04,,,0.06,Wunderground v.1.15,2013-01-12 01:55:00,
2013-01-11 21:05:00,37.5,34.8,30.22,SSE,148,1.0,1.0,90,0.00,,,0.07,Wunderground v.1.15,2013-01-12 02:05:00,
2013-01-11 21:10:00,37.5,35.1,30.22,SSE,148,0.0,0.0,91,0.00,,,0.07,Wunderground v.1.15,2013-01-12 02:10:00,
2013-01-11 21:15:00,37.5,35.1,30.22,SSE,148,0.0,0.0,91,0.00,,,0.07,Wunderground v.1.15,2013-01-12 02:15:00,
2013-01-11 21:25:00,37.5,35.1,30.22,SSE,148,0.0,1.0,91,0.00,,,0.07,Wunderground v.1.15,2013-01-12 02:25:00,
2013-01-11 21:35:00,37.5,35.1,30.22,SSE,148,0.0,1.0,91,0.00,,,0.08,Wunderground v.1.15,2013-01-12 02:35:00,
2013-01-11 21:40:00,37.5,35.4,30.22,SSE,148,1.0,1.0,92,0.00,,,0.08,Wunderground v.1.15,2013-01-12 02:40:00,
2013-01-11 21:50:00,37.7,35.6,30.22,SSE,148,0.0,0.0,92,0.05,,,0.09,Wunderground v.1.15,2013-01-12 02:50:00,
2013-01-11 21:55:00,37.7,35.6,30.22,SSE,148,0.0,1.0,92,0.04,,,0.09,Wunderground v.1.15,2013-01-12 02:55:00,
2013-01-11 22:05:00,37.7,35.6,30.21,ESE,107,0.0,1.0,92,0.00,,,0.09,Wunderground v.1.15,2013-01-12 03:05:00,
2013-01-11 22:10:00,37.8,35.7,30.21,ESE,107,1.0,1.0,92,0.00,,,0.09,Wunderground v.1.15,2013-01-12 03:10:00,
2013-01-11 22:20:00,37.7,35.6,30.20,ESE,107,0.0,1.0,92,0.00,,,0.10,Wunderground v.1.15,2013-01-12 03:20:00,
2013-01-11 22:25:00,37.8,35.7,30.20,ESE,107,0.0,1.0,92,0.00,,,0.10,Wunderground v.1.15,2013-01-12 03:25:00,
2013-01-11 22:35:00,37.8,36.0,30.20,SSE,158,0.0,1.0,93,0.00,,,0.10,Wunderground v.1.15,2013-01-12 03:35:00,
2013-01-11 22:40:00,37.8,36.0,30.20,SSE,158,0.0,0.0,93,0.00,,,0.10,Wunderground v.1.15,2013-01-12 03:40:00,
2013-01-11 22:50:00,37.8,36.0,30.21,SSE,158,0.0,0.0,93,0.00,,,0.10,Wunderground v.1.15,2013-01-12 03:50:00,
2013-01-11 23:00:00,37.9,36.1,30.21,SSE,158,0.0,0.0,93,0.00,,,0.10,Wunderground v.1.15,2013-01-12 04:00:00,
2013-01-11 23:05:00,37.9,36.1,30.20,SSE,158,0.0,0.0,93,0.00,,,0.10,Wunderground v.1.15,2013-01-12 04:05:00,
2013-01-11 23:15:00,37.9,36.1,30.21,SSE,160,0.0,0.0,93,0.00,,,0.10,Wunderground v.1.15,2013-01-12 04:15:00,
2013-01-11 23:20:00,37.9,36.1,30.21,SSE,160,0.0,0.0,93,0.00,,,0.10,Wunderground v.1.15,2013-01-12 04:20:00,
2013-01-11 23:30:00,37.9,36.1,30.21,SSE,160,0.0,0.0,93,0.00,,,0.10,Wunderground v.1.15,2013-01-12 04:30:00,
2013-01-11 23:40:00,38.0,36.2,30.21,SSE,160,0.0,0.0,93,0.00,,,0.10,Wunderground v.1.15,2013-01-12 04:40:00,
2013-01-11 23:45:00,38.0,36.2,30.21,SSE,160,0.0,0.0,93,0.00,,,0.10,Wunderground v.1.15,2013-01-12 04:45:00,
2013-01-11 23:50:00,38.0,36.2,30.20,SSE,160,0.0,0.0,93,0.00,,,0.10,Wunderground v.1.15,2013-01-12 04:50:00,